Rome, GA

1:14 PM EDT on July 25, 2017 (GMT -0400)
Russell

Weather History for KRMG - January, 2014

Change the Weather History Date:

Tuesday, January 7, 2014

  Actual Average Record
Temperature  
Mean Temperature 16 °F 41 °F  
Max Temperature 25 °F 51 °F 71 °F (2008)
Min Temperature 6 °F 30 °F 6 °F (2014)
Degree Days  
Heating Degree Days 49 24  
Month to date heating degree days 237 168  
Since 1 July heating degree days 1502 1468  
Moisture  
Dew Point 0 °F    
Average Humidity 58    
Maximum Humidity 80    
Minimum Humidity 36    
Precipitation  
Precipitation T in 0.13 in 1.04 in (1998)
Month to date precipitation 0.49 0.76  
Year to date precipitation 0.49 0.76  
Snow  
Snow 0.00 in - - ()
Month to date snowfall T  
Since 1 July snowfall T  
Snow Depth 0.00 in    
Sea Level Pressure  
Sea Level Pressure 30.54 in    
Wind  
Wind Speed 4 mph (NNW)    
Max Wind Speed 15 mph    
Max Gust Speed 22 mph    
Visibility 10 miles    
Events      
T = Trace of Precipitation, MM = Missing Value Source: NWS Daily Summary

Daily Weather History Graph

Daily Weather History Graph

Search for Another Location

Airport or City:

Trip Planner

Search our weather history database for the weather conditions in past years. The results will help you decide how hot, cold, wet, or windy it might be!

Date:

Astronomy

Jan. 07, 2014 Rise Set
Actual Time 7:47 AM EST 5:46 PM EST
Civil Twilight 7:20 AM EST 6:14 PM EST
Nautical Twilight 6:48 AM EST 6:45 PM EST
Astronomical Twilight 6:18 AM EST 7:15 PM EST
Moon 11:55 AM EST (1/7) 12:00 AM EST (1/7)
Length of Visible Light 10h 54m
Length of Day
9h 58m
Waxing Crescent, 45% of the Moon is Illuminated
Jan 7
Waxing Crescent
Jan 7
First Quarter
Jan 15
Full
Jan 24
Last Quarter
Jan 30
New

Hourly Weather History & Observations

Time (EST) Temp. Windchill Dew Point Humidity Pressure Visibility Wind Dir Wind Speed Gust Speed Precip Events Conditions
12:53 AM 10.0 °F -2.9 °F -2.0 °F 58% 30.52 in 10.0 mi WNW 9.2 mph 17.3 mph N/A   Partly Cloudy
1:53 AM 9.0 °F -4.2 °F -2.9 °F 59% 30.53 in 10.0 mi NW 9.2 mph - N/A   Partly Cloudy
2:53 AM 8.1 °F -7.0 °F -4.0 °F 58% 30.53 in 10.0 mi North 11.5 mph - N/A   Scattered Clouds
3:53 AM 7.0 °F -3.3 °F -2.9 °F 64% 30.54 in 10.0 mi NW 5.8 mph - N/A   Partly Cloudy
4:53 AM 7.0 °F -6.6 °F -4.0 °F 61% 30.52 in 10.0 mi North 9.2 mph - N/A   Clear
5:53 AM 6.1 °F -2.8 °F -4.0 °F 63% 30.53 in 10.0 mi NNW 4.6 mph - N/A   Clear
6:53 AM 6.1 °F -4.3 °F -2.9 °F 67% 30.56 in 10.0 mi NW 5.8 mph - N/A   Clear
7:53 AM 6.1 °F -7.8 °F -2.9 °F 67% 30.60 in 10.0 mi NNW 9.2 mph - N/A   Clear
8:53 AM 8.1 °F -5.3 °F -2.9 °F 61% 30.61 in 10.0 mi North 9.2 mph - N/A   Clear
9:53 AM 10.9 °F -1.8 °F -2.9 °F 54% 30.60 in 10.0 mi North 9.2 mph - N/A   Clear
10:53 AM 12.9 °F 2.6 °F -2.9 °F 49% 30.58 in 10.0 mi NNW 6.9 mph - N/A   Clear
11:53 AM 16.0 °F 10.4 °F -0.9 °F 47% 30.57 in 10.0 mi Variable 3.5 mph - N/A   Clear
12:53 PM 18.0 °F 12.7 °F -0.9 °F 44% 30.54 in 10.0 mi Variable 3.5 mph - 0.00 in   Clear
1:53 PM 19.9 °F - -0.0 °F 42% 30.51 in 10.0 mi Calm Calm - 0.00 in   Clear
2:53 PM 23.0 °F 14.7 °F 1.0 °F 39% 30.51 in 10.0 mi NNW 6.9 mph - N/A   Clear
3:53 PM 23.0 °F - 1.0 °F 39% 30.51 in 10.0 mi Calm Calm - N/A   Clear
4:53 PM 25.0 °F - 1.9 °F 37% 30.51 in 10.0 mi Calm Calm - N/A   Clear
5:53 PM 21.9 °F - 3.0 °F 44% 30.52 in 10.0 mi Calm Calm - N/A   Clear
6:53 PM 19.9 °F - 3.9 °F 50% 30.53 in 10.0 mi Calm Calm - N/A   Clear
7:53 PM 17.1 °F - 6.1 °F 62% 30.54 in 10.0 mi Calm Calm - N/A   Clear
8:53 PM 18.0 °F - 6.1 °F 60% 30.53 in 10.0 mi Calm Calm - N/A   Clear
9:53 PM 17.1 °F - 7.0 °F 65% 30.54 in 10.0 mi Calm Calm - N/A   Clear
10:53 PM 14.0 °F - 9.0 °F 80% 30.54 in 10.0 mi Calm Calm - N/A   Clear
11:53 PM 14.0 °F - 10.0 °F 84% 30.54 in 10.0 mi Calm Calm - N/A   Clear